Check out our new PWSWeather beta!
PWSweather.com
Personal Weather Stations
Station Observations

VeniceIT

Lat: 45.472055, Lon: 12.235221

Elevation: 0

Station Type: TP1080WC

http://meteomarghera.asdasd.it/

High Low Average
Temperature -5866.1°F-3276.7°C -5866.1°F-3276.7°C -5866.1°F-3276.7°C
Dew Point -- -- --
Winds 916.0 mph 1474.2 kmh 916.0 mph 1474.2 kmh 916.0 mph N1474.2 kmh N
Wind Gusts 916.0 mph1474.2 kmh 916.0 mph1474.2 kmh 916.0 mph1474.2 kmh
Humidity - - -
Pressure 30.39 in1029.1 mb 30.21 in1023.0 mb -
Precipitation 0.00 in0.0 mm - -
Hour Temp Dew Point Humidity Winds Wind Gusts Pressure Precip Precip Rate Daily Precip Total
12:04 AM -5866.1°F-3276.7°C -- - 916.0 mph N1474.2 kmh N 916.0 mph1474.2 kmh 30.33 in1027.1 mb 0.00 in0.0 mm 0.00 in0.0 mm 0.00 in0.0 mm
12:33 AM -5866.1°F-3276.7°C -- - 916.0 mph N1474.2 kmh N 916.0 mph1474.2 kmh 30.33 in1027.1 mb 0.00 in0.0 mm 0.00 in0.0 mm 0.00 in0.0 mm
01:04 AM -5866.1°F-3276.7°C -- - 916.0 mph N1474.2 kmh N 916.0 mph1474.2 kmh 30.33 in1027.1 mb 0.00 in0.0 mm 0.00 in0.0 mm 0.00 in0.0 mm
01:33 AM -5866.1°F-3276.7°C -- - 916.0 mph N1474.2 kmh N 916.0 mph1474.2 kmh 30.32 in1026.8 mb 0.00 in0.0 mm 0.00 in0.0 mm 0.00 in0.0 mm
02:04 AM -5866.1°F-3276.7°C -- - 916.0 mph N1474.2 kmh N 916.0 mph1474.2 kmh 30.32 in1026.8 mb 0.00 in0.0 mm 0.00 in0.0 mm 0.00 in0.0 mm
02:33 AM -5866.1°F-3276.7°C -- - 916.0 mph N1474.2 kmh N 916.0 mph1474.2 kmh 30.33 in1027.1 mb 0.00 in0.0 mm 0.00 in0.0 mm 0.00 in0.0 mm
03:04 AM -5866.1°F-3276.7°C -- - 916.0 mph N1474.2 kmh N 916.0 mph1474.2 kmh 30.34 in1027.4 mb 0.00 in0.0 mm 0.00 in0.0 mm 0.00 in0.0 mm
03:33 AM -5866.1°F-3276.7°C -- - 916.0 mph N1474.2 kmh N 916.0 mph1474.2 kmh 30.33 in1027.1 mb 0.00 in0.0 mm 0.00 in0.0 mm 0.00 in0.0 mm
04:04 AM -5866.1°F-3276.7°C -- - 916.0 mph N1474.2 kmh N 916.0 mph1474.2 kmh 30.34 in1027.4 mb 0.00 in0.0 mm 0.00 in0.0 mm 0.00 in0.0 mm
04:33 AM -5866.1°F-3276.7°C -- - 916.0 mph N1474.2 kmh N 916.0 mph1474.2 kmh 30.35 in1027.8 mb 0.00 in0.0 mm 0.00 in0.0 mm 0.00 in0.0 mm
05:04 AM -5866.1°F-3276.7°C -- - 916.0 mph N1474.2 kmh N 916.0 mph1474.2 kmh 30.35 in1027.8 mb 0.00 in0.0 mm 0.00 in0.0 mm 0.00 in0.0 mm
05:33 AM -5866.1°F-3276.7°C -- - 916.0 mph N1474.2 kmh N 916.0 mph1474.2 kmh 30.35 in1027.8 mb 0.00 in0.0 mm 0.00 in0.0 mm 0.00 in0.0 mm
06:04 AM -5866.1°F-3276.7°C -- - 916.0 mph N1474.2 kmh N 916.0 mph1474.2 kmh 30.35 in1027.8 mb 0.00 in0.0 mm 0.00 in0.0 mm 0.00 in0.0 mm
06:33 AM -5866.1°F-3276.7°C -- - 916.0 mph N1474.2 kmh N 916.0 mph1474.2 kmh 30.35 in1027.8 mb 0.00 in0.0 mm 0.00 in0.0 mm 0.00 in0.0 mm
07:04 AM -5866.1°F-3276.7°C -- - 916.0 mph N1474.2 kmh N 916.0 mph1474.2 kmh 30.35 in1027.8 mb 0.00 in0.0 mm 0.00 in0.0 mm 0.00 in0.0 mm
07:33 AM -5866.1°F-3276.7°C -- - 916.0 mph N1474.2 kmh N 916.0 mph1474.2 kmh 30.36 in1028.1 mb 0.00 in0.0 mm 0.00 in0.0 mm 0.00 in0.0 mm
08:04 AM -5866.1°F-3276.7°C -- - 916.0 mph N1474.2 kmh N 916.0 mph1474.2 kmh 30.37 in1028.4 mb 0.00 in0.0 mm 0.00 in0.0 mm 0.00 in0.0 mm
08:33 AM -5866.1°F-3276.7°C -- - 916.0 mph N1474.2 kmh N 916.0 mph1474.2 kmh 30.38 in1028.8 mb 0.00 in0.0 mm 0.00 in0.0 mm 0.00 in0.0 mm
09:04 AM -5866.1°F-3276.7°C -- - 916.0 mph N1474.2 kmh N 916.0 mph1474.2 kmh 30.39 in1029.1 mb 0.00 in0.0 mm 0.00 in0.0 mm 0.00 in0.0 mm
09:33 AM -5866.1°F-3276.7°C -- - 916.0 mph N1474.2 kmh N 916.0 mph1474.2 kmh 30.39 in1029.1 mb 0.00 in0.0 mm 0.00 in0.0 mm 0.00 in0.0 mm
10:04 AM -5866.1°F-3276.7°C -- - 916.0 mph N1474.2 kmh N 916.0 mph1474.2 kmh 30.39 in1029.1 mb 0.00 in0.0 mm 0.00 in0.0 mm 0.00 in0.0 mm
10:33 AM -5866.1°F-3276.7°C -- - 916.0 mph N1474.2 kmh N 916.0 mph1474.2 kmh 30.39 in1029.1 mb 0.00 in0.0 mm 0.00 in0.0 mm 0.00 in0.0 mm
11:04 AM -5866.1°F-3276.7°C -- - 916.0 mph N1474.2 kmh N 916.0 mph1474.2 kmh 30.39 in1029.1 mb 0.00 in0.0 mm 0.00 in0.0 mm 0.00 in0.0 mm
11:33 AM -5866.1°F-3276.7°C -- - 916.0 mph N1474.2 kmh N 916.0 mph1474.2 kmh 30.39 in1029.1 mb 0.00 in0.0 mm 0.00 in0.0 mm 0.00 in0.0 mm
12:04 PM -5866.1°F-3276.7°C -- - 916.0 mph N1474.2 kmh N 916.0 mph1474.2 kmh 30.39 in1029.1 mb 0.00 in0.0 mm 0.00 in0.0 mm 0.00 in0.0 mm
12:33 PM -5866.1°F-3276.7°C -- - 916.0 mph N1474.2 kmh N 916.0 mph1474.2 kmh 30.37 in1028.4 mb 0.00 in0.0 mm 0.00 in0.0 mm 0.00 in0.0 mm
01:04 PM -5866.1°F-3276.7°C -- - 916.0 mph N1474.2 kmh N 916.0 mph1474.2 kmh 30.36 in1028.1 mb 0.00 in0.0 mm 0.00 in0.0 mm 0.00 in0.0 mm
01:33 PM -5866.1°F-3276.7°C -- - 916.0 mph N1474.2 kmh N 916.0 mph1474.2 kmh 30.34 in1027.4 mb 0.00 in0.0 mm 0.00 in0.0 mm 0.00 in0.0 mm
02:04 PM -5866.1°F-3276.7°C -- - 916.0 mph N1474.2 kmh N 916.0 mph1474.2 kmh 30.33 in1027.1 mb 0.00 in0.0 mm 0.00 in0.0 mm 0.00 in0.0 mm
02:33 PM -5866.1°F-3276.7°C -- - 916.0 mph N1474.2 kmh N 916.0 mph1474.2 kmh 30.32 in1026.8 mb 0.00 in0.0 mm 0.00 in0.0 mm 0.00 in0.0 mm
03:04 PM -5866.1°F-3276.7°C -- - 916.0 mph N1474.2 kmh N 916.0 mph1474.2 kmh 30.32 in1026.8 mb 0.00 in0.0 mm 0.00 in0.0 mm 0.00 in0.0 mm
03:33 PM -5866.1°F-3276.7°C -- - 916.0 mph N1474.2 kmh N 916.0 mph1474.2 kmh 30.32 in1026.8 mb 0.00 in0.0 mm 0.00 in0.0 mm 0.00 in0.0 mm
04:04 PM -5866.1°F-3276.7°C -- - 916.0 mph N1474.2 kmh N 916.0 mph1474.2 kmh 30.31 in1026.4 mb 0.00 in0.0 mm 0.00 in0.0 mm 0.00 in0.0 mm
04:33 PM -5866.1°F-3276.7°C -- - 916.0 mph N1474.2 kmh N 916.0 mph1474.2 kmh 30.30 in1026.1 mb 0.00 in0.0 mm 0.00 in0.0 mm 0.00 in0.0 mm
05:04 PM -5866.1°F-3276.7°C -- - 916.0 mph N1474.2 kmh N 916.0 mph1474.2 kmh 30.30 in1026.1 mb 0.00 in0.0 mm 0.00 in0.0 mm 0.00 in0.0 mm
05:33 PM -5866.1°F-3276.7°C -- - 916.0 mph N1474.2 kmh N 916.0 mph1474.2 kmh 30.30 in1026.1 mb 0.00 in0.0 mm 0.00 in0.0 mm 0.00 in0.0 mm
06:04 PM -5866.1°F-3276.7°C -- - 916.0 mph N1474.2 kmh N 916.0 mph1474.2 kmh 30.30 in1026.1 mb 0.00 in0.0 mm 0.00 in0.0 mm 0.00 in0.0 mm
06:33 PM -5866.1°F-3276.7°C -- - 916.0 mph N1474.2 kmh N 916.0 mph1474.2 kmh 30.30 in1026.1 mb 0.00 in0.0 mm 0.00 in0.0 mm 0.00 in0.0 mm
07:04 PM -5866.1°F-3276.7°C -- - 916.0 mph N1474.2 kmh N 916.0 mph1474.2 kmh 30.30 in1026.1 mb 0.00 in0.0 mm 0.00 in0.0 mm 0.00 in0.0 mm
07:33 PM -5866.1°F-3276.7°C -- - 916.0 mph N1474.2 kmh N 916.0 mph1474.2 kmh 30.28 in1025.4 mb 0.00 in0.0 mm 0.00 in0.0 mm 0.00 in0.0 mm
08:04 PM -5866.1°F-3276.7°C -- - 916.0 mph N1474.2 kmh N 916.0 mph1474.2 kmh 30.28 in1025.4 mb 0.00 in0.0 mm 0.00 in0.0 mm 0.00 in0.0 mm
08:33 PM -5866.1°F-3276.7°C -- - 916.0 mph N1474.2 kmh N 916.0 mph1474.2 kmh 30.28 in1025.4 mb 0.00 in0.0 mm 0.00 in0.0 mm 0.00 in0.0 mm
09:04 PM -5866.1°F-3276.7°C -- - 916.0 mph N1474.2 kmh N 916.0 mph1474.2 kmh 30.27 in1025.1 mb 0.00 in0.0 mm 0.00 in0.0 mm 0.00 in0.0 mm
09:33 PM -5866.1°F-3276.7°C -- - 916.0 mph N1474.2 kmh N 916.0 mph1474.2 kmh 30.28 in1025.4 mb 0.00 in0.0 mm 0.00 in0.0 mm 0.00 in0.0 mm
10:04 PM -5866.1°F-3276.7°C -- - 916.0 mph N1474.2 kmh N 916.0 mph1474.2 kmh 30.26 in1024.7 mb 0.00 in0.0 mm 0.00 in0.0 mm 0.00 in0.0 mm
10:33 PM -5866.1°F-3276.7°C -- - 916.0 mph N1474.2 kmh N 916.0 mph1474.2 kmh 30.25 in1024.4 mb 0.00 in0.0 mm 0.00 in0.0 mm 0.00 in0.0 mm
11:04 PM -5866.1°F-3276.7°C -- - 916.0 mph N1474.2 kmh N 916.0 mph1474.2 kmh 30.24 in1024.0 mb 0.00 in0.0 mm 0.00 in0.0 mm 0.00 in0.0 mm
11:33 PM -5866.1°F-3276.7°C -- - 916.0 mph N1474.2 kmh N 916.0 mph1474.2 kmh 30.21 in1023.0 mb 0.00 in0.0 mm 0.00 in0.0 mm 0.00 in0.0 mm